216P/LINEAR (2001)

Japanese version
Home page
Updated on March 8, 2009

---------------------------------------------------------------------

* Profile

Designation 216P/2001 CV8
Discovery Date February 1, 2001
Magnitude 19.0 mag
Discoverer Lincoln Laboratory Near-Earth Asteroid Research project

* Orbital Elements

Epoch 2001 Feb. 20.0 TT = JDT 2451960.5
T 2001 Feb. 12.27294 TT                                 MPC
q   2.1519939            (2000.0)            P               Q
n   0.12904653     Peri.  151.42308     -0.87779619     -0.47903427
a   3.8782740      Node   359.95400     +0.40415683     -0.74044715
e   0.4451156      Incl.    9.04202     +0.25715969     -0.47144903
P   7.64

* Finding Charts

* Magnitudes Graph

        m1 = 2.0 + 5 log d + 45 log r

---------------------------------------------------------------------

The orbital elements are published on M.P.E.C. 2009-D39.
The charts are made with StellaNavigator Ver.2.0 for Windows (AstroArts / ASCII).
The magnitudes graphs are made with Comet for Windows.

---------------------------------------------------------------------

Copyright(C) Seiichi Yoshida (comet@aerith.net). All rights reserved.